Flag for Spain Weather past 2 weeks in Córdoba, Spain

Now
79 °F

Clear.


Feels Like: 80 °F
Forecast: 71 / 92 °F
Wind: 12 mph from Southwest

Location: Moron De La Frontera Airport

Current Time: Jul 30, 2015 at 2:41:19 AM

Latest Report: Jul 30, 2015 at 2:00 AM


Visibility: 10 mi

Pressure: 29.86 "Hg

Humidity: 51%

Dew point: 59 °F

Location of CórdobaLocation

Historic Weather in Córdoba — Graph

°F

Córdoba temperature yesterday

Maximum temperature yesterday: 102 °F (at 5:00 PM)
Minimum temperature yesterday: 73 °F (at 6:00 AM)
Average temperature yesterday: 87 °F

Past Weeks' High & Low Weather Summary

 TemperatureHumidityPressure
High109 °F (Jul 15, 5:00 PM)78% (Jul 25, 7:00 AM)30.07 "Hg (Jul 25, 7:00 AM)
Low64 °F (Jul 26, 6:00 AM)12% (Jul 27, 7:00 PM)29.80 "Hg (Jul 29, 7:00 PM)
Average87 °F40%29.94 "Hg
* Reported Jul 15 1:00 AM — Jul 30 1:00 AM, Córdoba, Weather by CustomWeather, © 2015

Note: Actual official high and low records may vary slightly from our data, if they occured in-between our weather recording intervals... More about our weather records

Advertising

Córdoba weather history for previous 24 hours

 ConditionsComfort  
Time TempWeatherWind HumidityBarometerVisibility
1:00 AM
Thu, Jul 30
81 °FPassing clouds.14 mph45%29.86 "HgN/A
12:00 AM82 °FPassing clouds.13 mph45%29.86 "HgN/A
11:00 PM
Wed, Jul 29
82 °FPassing clouds.12 mph37%29.86 "HgN/A
10:00 PM86 °FPassing clouds.9 mph38%29.83 "HgN/A
9:00 PM91 °FPassing clouds.13 mph28%29.80 "HgN/A
8:00 PM97 °FPassing clouds.13 mph22%29.80 "HgN/A
7:00 PM100 °FPassing clouds.13 mph22%29.80 "HgN/A
6:00 PM100 °FPassing clouds.12 mph22%29.83 "HgN/A
5:00 PM102 °FPassing clouds.9 mph17%29.83 "HgN/A
4:00 PM100 °FPassing clouds.12 mph25%29.86 "HgN/A
3:00 PM100 °FPassing clouds.10 mph31%29.86 "HgN/A
2:00 PM97 °FPassing clouds.8 mph34%29.89 "HgN/A
1:00 PM93 °FPassing clouds.7 mph39%29.89 "HgN/A
12:00 PM90 °FPassing clouds.6 mph43%29.92 "HgN/A
11:00 AM86 °FPassing clouds.6 mph52%29.92 "HgN/A
10:00 AM82 °FPassing clouds.7 mph58%29.92 "HgN/A
9:00 AM79 °FPassing clouds.9 mph58%29.89 "HgN/A
8:00 AM73 °FClear.6 mph57%29.89 "Hg10 mi
7:00 AM73 °FClear.No wind50%29.89 "Hg10 mi
6:00 AM73 °FClear.No wind50%29.86 "Hg10 mi
5:00 AM75 °FPassing clouds.5 mph47%29.86 "HgN/A
4:00 AM75 °FClear.2 mph47%29.86 "Hg10 mi
3:00 AM77 °FClear.5 mph47%29.89 "Hg10 mi
2:00 AM79 °FClear.6 mph42%29.89 "Hg10 mi
Weather by CustomWeather, © 2015

See weather overviewHow to use our weather pages